• In Hungary
  • List of Countries
  • For 7 days
  • Water Temperature
  • Satellite Maps
  • Weather Map
  • News
  • Weather Widgets
  • user-avatar
    Login

    Hourly Weather Bogoduhov

    Today, 20 September, Thursday

    Time Temperature Precipitation Wind Pressure Humidity
    00:00 +17°C° 0 mm 2 mps 749 mmHg 65%
    01:00 +16°C° 0 mm 2 mps 749 mmHg 67%
    02:00 +16°C° 0 mm 2 mps 749 mmHg 69%
    03:00 +16°C° 0 mm 2 mps 749 mmHg 71%
    04:00 +15°C° 0 mm 2 mps 749 mmHg 73%
    05:00 +15°C° 0 mm 2 mps 749 mmHg 75%
    06:00 +17°C° 0 mm 2 mps 749 mmHg 71%
    07:00 +18°C° 0 mm 3 mps 749 mmHg 67%
    08:00 +20°C° 0 mm 3 mps 749 mmHg 62%
    09:00 +22°C° 0 mm 3 mps 749 mmHg 57%
    10:00 +25°C° 0 mm 3 mps 749 mmHg 53%
    11:00 +27°C° 0 mm 4 mps 749 mmHg 48%
    12:00 +27°C° 0 mm 4 mps 749 mmHg 46%
    13:00 +28°C° 0 mm 4 mps 748 mmHg 44%
    14:00 +28°C° 0 mm 4 mps 748 mmHg 42%
    15:00 +27°C° 0 mm 3 mps 748 mmHg 46%
    16:00 +26°C° 0 mm 3 mps 748 mmHg 50%
    17:00 +25°C° 0 mm 2 mps 748 mmHg 54%
    18:00 +24°C° 0 mm 2 mps 748 mmHg 59%
    19:00 +21°C° 0 mm 2 mps 748 mmHg 63%
    20:00 +20°C° 0 mm 2 mps 748 mmHg 67%
    21:00 +19°C° 0 mm 2 mps 748 mmHg 69%
    22:00 +19°C° 0 mm 2 mps 748 mmHg 71%
    23:00 +19°C° 0 mm 1 mps 748 mmHg 73%

    Tomorrow, 21 September, Friday

    Time Temperature Precipitation Wind Pressure Humidity
    00:00 +19°C° 0 mm 1 mps 748 mmHg 75%
    01:00 +19°C° 0 mm 1 mps 748 mmHg 77%
    02:00 +18°C° 0 mm 1 mps 748 mmHg 80%
    03:00 +18°C° 0 mm 1 mps 748 mmHg 82%
    04:00 +18°C° 0 mm 1 mps 748 mmHg 84%
    05:00 +16°C° 0 mm 1 mps 748 mmHg 86%
    06:00 +19°C° 0 mm 1 mps 749 mmHg 81%
    07:00 +20°C° 0 mm 1 mps 749 mmHg 76%
    08:00 +22°C° 0 mm 1 mps 749 mmHg 70%
    09:00 +23°C° 0 mm 1 mps 749 mmHg 64%
    10:00 +25°C° 0 mm 1 mps 749 mmHg 58%
    11:00 +27°C° 0 mm 1 mps 749 mmHg 51%
    12:00 +27°C° 0 mm 1 mps 749 mmHg 47%
    13:00 +28°C° 0 mm 1 mps 749 mmHg 44%
    14:00 +28°C° 0 mm 1 mps 748 mmHg 40%
    15:00 +28°C° 0 mm 1 mps 748 mmHg 43%
    16:00 +27°C° 0 mm 1 mps 748 mmHg 46%
    17:00 +26°C° 0 mm 1 mps 748 mmHg 48%
    18:00 +24°C° 0 mm 1 mps 748 mmHg 51%
    19:00 +23°C° 0 mm 1 mps 748 mmHg 53%
    20:00 +22°C° 0 mm 1 mps 748 mmHg 56%
    21:00 +22°C° 0 mm 1 mps 748 mmHg 57%
    22:00 +20°C° 0 mm 2 mps 748 mmHg 59%
    23:00 +20°C° 0 mm 2 mps 748 mmHg 60%

    Day after tomorrow, 22 September, Saturday

    Time Temperature Precipitation Wind Pressure Humidity
    00:00 +19°C° 0 mm 2 mps 748 mmHg 61%
    01:00 +19°C° 0 mm 2 mps 748 mmHg 62%
    02:00 +18°C° 0 mm 2 mps 748 mmHg 63%
    03:00 +18°C° 0 mm 2 mps 748 mmHg 63%
    04:00 +18°C° 0 mm 2 mps 748 mmHg 64%
    05:00 +17°C° 0 mm 2 mps 748 mmHg 64%
    06:00 +19°C° 0 mm 2 mps 748 mmHg 60%
    07:00 +20°C° 0 mm 2 mps 748 mmHg 56%
    08:00 +22°C° 0 mm 3 mps 748 mmHg 52%
    09:00 +24°C° 0 mm 3 mps 748 mmHg 48%
    10:00 +26°C° 0 mm 3 mps 748 mmHg 43%
    11:00 +28°C° 0 mm 3 mps 747 mmHg 39%
    12:00 +28°C° 0 mm 3 mps 747 mmHg 37%
    13:00 +29°C° 0 mm 3 mps 747 mmHg 35%
    14:00 +29°C° 0 mm 3 mps 746 mmHg 34%
    15:00 +28°C° 0 mm 3 mps 746 mmHg 37%
    16:00 +27°C° 0 mm 2 mps 746 mmHg 39%
    17:00 +26°C° 0 mm 2 mps 745 mmHg 42%
    18:00 +25°C° 0 mm 2 mps 745 mmHg 43%
    19:00 +24°C° 0 mm 2 mps 745 mmHg 45%
    20:00 +23°C° 0 mm 2 mps 745 mmHg 47%
    21:00 +23°C° 0 mm 2 mps 745 mmHg 48%
    22:00 +21°C° 0 mm 2 mps 744 mmHg 49%
    23:00 +21°C° 0 mm 2 mps 744 mmHg 49%

    23 September, Sunday

    Time Temperature Precipitation Wind Pressure Humidity
    00:00 +21°C° 0 mm 2 mps 744 mmHg 49%
    01:00 +20°C° 0 mm 3 mps 743 mmHg 49%
    02:00 +20°C° 0 mm 3 mps 743 mmHg 48%
    03:00 +20°C° 0 mm 4 mps 743 mmHg 48%
    04:00 +20°C° 0 mm 4 mps 742 mmHg 48%
    05:00 +20°C° 0 mm 4 mps 742 mmHg 48%
    06:00 +19°C° 0 mm 5 mps 742 mmHg 53%
    07:00 +19°C° 0 mm 5 mps 742 mmHg 57%
    08:00 +17°C° 0 mm 6 mps 742 mmHg 62%
    09:00 +15°C° 1 mm 6 mps 742 mmHg 69%
    10:00 +13°C° 1 mm 6 mps 743 mmHg 75%
    11:00 +10°C° 1 mm 6 mps 743 mmHg 82%
    12:00 +11°C° 0.9 mm 6 mps 743 mmHg 77%
    13:00 +11°C° 0.9 mm 6 mps 744 mmHg 72%
    14:00 +12°C° 0.9 mm 5 mps 744 mmHg 67%
    15:00 +13°C° 0 mm 5 mps 744 mmHg 66%
    16:00 +13°C° 0 mm 4 mps 745 mmHg 65%
    17:00 +13°C° 0 mm 3 mps 745 mmHg 64%
    18:00 +12°C° 0 mm 3 mps 745 mmHg 67%
    19:00 +12°C° 0 mm 3 mps 745 mmHg 70%
    20:00 +11°C° 0 mm 3 mps 745 mmHg 73%
    21:00 +10°C° 0 mm 3 mps 745 mmHg 74%
    22:00 +10°C° 0 mm 3 mps 745 mmHg 75%
    23:00 +10°C° 0 mm 3 mps 746 mmHg 75%

    24 September, Monday

    Time Temperature Precipitation Wind Pressure Humidity
    00:00 +9°C° 0 mm 3 mps 746 mmHg 76%
    01:00 +9°C° 0 mm 2 mps 746 mmHg 77%
    02:00 +9°C° 0 mm 2 mps 746 mmHg 77%
    03:00 +8°C° 0 mm 2 mps 746 mmHg 78%
    04:00 +8°C° 0 mm 2 mps 746 mmHg 78%
    05:00 +8°C° 0 mm 2 mps 746 mmHg 78%
    06:00 +9°C° 0 mm 2 mps 745 mmHg 73%
    07:00 +11°C° 0 mm 3 mps 745 mmHg 68%
    08:00 +12°C° 0 mm 3 mps 745 mmHg 62%
    09:00 +13°C° 0 mm 4 mps 745 mmHg 58%
    10:00 +14°C° 0 mm 5 mps 744 mmHg 53%
    11:00 +15°C° 0 mm 6 mps 744 mmHg 49%
    12:00 +16°C° 0 mm 6 mps 743 mmHg 45%
    13:00 +17°C° 0 mm 6 mps 743 mmHg 41%
    14:00 +18°C° 0 mm 7 mps 742 mmHg 37%
    15:00 +18°C° 0 mm 7 mps 741 mmHg 38%
    16:00 +17°C° 0 mm 6 mps 740 mmHg 39%
    17:00 +17°C° 0 mm 6 mps 740 mmHg 41%
    18:00 +17°C° 0 mm 7 mps 739 mmHg 41%
    19:00 +16°C° 0 mm 8 mps 738 mmHg 41%
    20:00 +16°C° 0 mm 9 mps 737 mmHg 41%
    21:00 +15°C° 0.2 mm 9 mps 737 mmHg 45%
    22:00 +15°C° 0.2 mm 9 mps 736 mmHg 49%
    23:00 +13°C° 0.2 mm 9 mps 736 mmHg 53%

    25 September, Tuesday

    Time Temperature Precipitation Wind Pressure Humidity
    00:00 +13°C° 0.2 mm 8 mps 735 mmHg 60%
    01:00 +13°C° 0.2 mm 8 mps 735 mmHg 67%
    02:00 +14°C° 0.2 mm 7 mps 735 mmHg 74%
    03:00 +12°C° 0.1 mm 7 mps 735 mmHg 76%
    04:00 +11°C° 0.1 mm 7 mps 735 mmHg 78%
    05:00 +10°C° 0.1 mm 6 mps 735 mmHg 80%
    06:00 +10°C° 0 mm 7 mps 735 mmHg 75%
    07:00 +11°C° 0 mm 8 mps 735 mmHg 69%
    08:00 +11°C° 0 mm 9 mps 735 mmHg 64%
    09:00 +12°C° 0 mm 9 mps 736 mmHg 61%
    10:00 +12°C° 0 mm 10 mps 736 mmHg 57%
    11:00 +13°C° 0 mm 10 mps 736 mmHg 54%
    12:00 +12°C° 0 mm 10 mps 736 mmHg 56%
    13:00 +12°C° 0 mm 10 mps 737 mmHg 58%
    14:00 +11°C° 0 mm 9 mps 737 mmHg 59%
    15:00 +11°C° 0 mm 9 mps 738 mmHg 60%
    16:00 +10°C° 0 mm 8 mps 739 mmHg 61%
    17:00 +10°C° 0 mm 8 mps 739 mmHg 62%
    18:00 +9°C° 0 mm 7 mps 740 mmHg 65%
    19:00 +9°C° 0 mm 6 mps 740 mmHg 68%
    20:00 +8°C° 0 mm 5 mps 741 mmHg 71%
    21:00 +7°C° 0 mm 4 mps 742 mmHg 73%
    22:00 +7°C° 0 mm 4 mps 742 mmHg 74%
    23:00 +6°C° 0 mm 4 mps 742 mmHg 76%
    Show more